Hourly Data Report for October 27, 2016

All times are specified in Local Standard Time (LST). Add 1 hour to adjust for Daylight Saving Time where and when it is observed.

ST LEONARD CS
NEW BRUNSWICK

47°09'28.050" N
67°49'55.014" W
245.00 m
810I001
71019
WIY

Download Data

Hourly Data (October 2016)
Hourly Data Report for October 27, 2016
Temp Definition
°C
Dew Point Temp Definition
°C
Rel Hum Definition
%
Wind Dir Definition
10's deg

Wind Spd Definition
km/h
Visibility Definition
km
Stn Press Definition
kPa
Hmdx Definition


Wind Chill Definition


Weather Definition


TIME
00:00 -0.4 -1.9 90 35 5   100.06   -2 LegendNANA
01:00 -0.5 -1.9 91 32 7   100.11   -3 LegendNANA
02:00 -1.0 -2.0 93 35 6   100.14   -3 LegendNANA
03:00 -1.1 -1.9 95 36 5   100.14   -3 LegendNANA
04:00 -1.4 -2.0 95 30 4   100.17   -3 LegendNANA
05:00 -1.3 -2.0 95 35 6   100.19   -4 LegendNANA
06:00 -1.5 -2.4 94 35 7   100.22   -4 LegendNANA
07:00 -2.1 -2.7 96 4 6   100.23   -4 LegendNANA
08:00 -2.0 -2.7 95 29 6   100.34   -4 LegendNANA
09:00 -0.5 -3.1 82 36 6   100.37   -3 LegendNANA
10:00 0.0 -3.3 78 4 11   100.37   -4 LegendNANA
11:00 1.8 -3.0 71 8 8   100.38     LegendNANA
12:00 2.0 -3.5 67 26 5   100.37     LegendNANA
13:00 2.6 -3.7 63 9 5   100.31     LegendNANA
14:00 2.6 -2.9 67 3 7   100.27     LegendNANA
15:00 2.7 -3.1 65 30 3   100.22     LegendNANA
16:00 2.5 -3.1 67 5 6   100.17     LegendNANA
17:00 0.4 -3.2 77 5 5   100.16     LegendNANA
18:00 -0.9 -2.6 88 6 8   100.18   -4 LegendNANA
19:00 -0.6 -3.0 84 8 6   100.21   -3 LegendNANA
20:00 -1.1 -3.4 84 8 9   100.22   -4 LegendNANA
21:00 -1.0 -3.4 84 11 11   100.21   -5 LegendNANA
22:00 -0.9 -3.2 85 11 12   100.20   -5 LegendNANA
23:00 -1.5 -3.5 86 11 13   100.16   -6 LegendNANA

Notes on Data Quality.

Legend

  • E = Estimated
  • M = Missing
  • NA = Not Available
  • ‡ = Partner data that is not subject to review by the National Climate Archives
Date modified: